Lid_Strength_Index
2 2 2 2 2 1 1 1 1 0 0 1 1 2 2 2 2 3 5 4 2 -0 1 2 2 2 2 4 4 4 11 12 11 10 9 6 7 5 4 6 5 5 5 3 2
3 2 2 2 2 2 1 1 1 1 1 1 1 0 1 1 3 4 2 1 1 -0 3 5 5 4 6 6 5 7 11 10 7 8 8 7 7 7 7 7 7 6 4 3 2
3 2 2 2 2 2 1 1 1 1 0 0 0 0 -1 -0 5 5 -0 -0 1 -1 3 4 5 5 8 6 6 7 10 7 8 7 8 7 7 6 7 9 6 7 6 4 3
3 3 3 3 2 2 1 1 0 0 0 -0 -0 -0 -1 2 11 2 -1 0 0 -0 3 6 7 8 9 10 7 9 7 7 8 7 8 7 6 7 7 7 5 4 4 4 4
4 3 3 3 2 2 1 0 0 -0 -0 -0 -1 -0 1 6 6 0 0 -1 -1 1 5 7 8 7 10 8 8 9 7 7 7 8 8 6 7 7 7 5 4 4 4 4 4
4 4 3 3 3 2 2 1 0 0 0 0 -1 -0 4 9 2 -0 -0 -0 1 2 5 7 7 5 8 8 9 8 8 8 8 8 8 7 7 7 6 5 5 5 5 4 4
4 4 4 3 3 3 2 0 0 0 0 -0 -0 2 5 6 1 -0 -0 1 0 1 8 6 6 7 6 9 7 8 10 9 8 8 8 7 9 9 6 5 6 6 5 4 4
4 4 4 4 3 3 2 0 0 1 -0 -0 0 3 7 2 -0 1 -0 1 0 1 5 5 5 7 7 6 8 10 10 14 10 8 9 8 12 7 6 6 7 6 6 5 4
4 4 4 4 4 3 2 0 1 1 0 0 2 5 8 2 3 1 0 3 2 2 3 4 6 8 7 11 13 12 16 14 13 8 9 9 11 8 6 7 7 7 6 5 5
4 4 4 4 4 2 2 2 1 2 1 1 3 7 5 7 4 2 1 2 4 5 8 8 9 10 10 12 18 16 15 13 14 10 9 10 10 9 7 7 7 7 6 5 5
4 4 4 4 4 2 4 3 4 6 5 6 7 7 6 4 3 3 2 3 5 8 12 11 14 14 12 10 10 11 13 14 12 10 11 11 10 9 9 7 7 7 6 6 5
4 4 4 4 4 4 5 7 6 7 9 6 6 6 5 4 7 5 2 7 9 11 10 13 15 10 9 9 11 12 13 14 12 10 11 11 11 9 7 8 6 6 6 6 5
4 4 4 4 4 5 7 8 5 6 9 8 6 7 7 5 7 7 5 6 10 11 11 14 14 12 10 11 13 12 14 14 14 11 11 11 13 10 8 8 8 7 5 5 5
4 4 5 5 5 6 8 7 6 6 11 11 9 8 6 6 9 4 5 6 9 11 10 12 11 12 12 13 11 15 10 11 13 14 17 11 18 12 9 9 10 9 8 7 7
3 4 5 5 7 7 8 7 6 6 19 10 9 5 7 8 8 7 4 7 10 10 10 12 11 12 13 12 10 13 10 12 12 14 14 15 17 13 10 11 9 9 8 8 7
3 4 6 7 6 8 7 7 8 14 18 12 9 9 10 9 9 7 7 6 7 10 10 12 10 12 11 10 10 9 11 12 12 14 19 15 16 15 12 11 9 9 9 9 8
3 4 7 7 9 8 7 9 14 17 11 12 12 10 10 12 11 10 11 12 13 15 15 13 13 12 12 12 10 11 13 19 20 20 20 15 16 14 10 10 10 9 9 9 9
3 6 7 7 7 7 8 11 15 16 15 10 11 10 12 12 11 11 11 13 11 11 14 16 17 15 12 12 13 12 13 17 21 20 18 16 18 14 11 11 10 9 9 9 9
5 8 9 8 8 7 9 16 14 16 12 12 10 13 13 11 12 12 13 13 12 12 15 16 17 14 12 12 12 13 15 13 16 18 17 15 14 12 13 13 12 11 11 11 10
8 10 10 8 7 8 11 13 15 14 12 11 13 12 14 13 12 13 13 13 13 12 11 13 17 15 13 11 11 12 13 17 16 21 22 16 17 14 15 14 14 12 11 10 10
9 11 10 8 7 10 14 13 15 13 12 12 12 12 13 13 12 13 13 12 11 12 11 12 13 16 13 15 15 15 16 15 15 16 19 20 15 13 15 14 14 13 11 10 10
10 13 8 8 12 16 13 16 14 13 12 11 12 12 12 12 13 13 13 12 11 11 13 12 14 17 17 15 13 13 14 14 17 18 17 17 15 14 14 13 13 13 12 10 10
10 11 8 9 14 14 16 15 14 14 12 12 12 12 13 12 14 13 13 12 10 11 13 12 15 18 17 15 14 15 15 14 16 16 18 18 15 14 13 12 11 12 11 11 11
11 13 12 12 13 12 14 14 14 13 13 12 13 12 13 14 12 14 14 13 11 11 11 11 14 16 16 16 14 16 15 14 14 17 16 16 13 12 13 13 12 12 11 11 11
10 12 12 14 14 13 13 14 15 15 13 13 13 13 13 16 16 14 13 13 13 11 13 12 14 16 16 16 15 15 15 14 15 13 15 13 14 11 9 11 11 10 11 11 12
12 13 13 13 13 13 12 15 14 14 13 14 14 13 13 14 14 14 12 13 12 13 13 14 15 17 17 17 17 18 15 13 14 13 13 13 13 10 9 10 11 11 12 12 12
10 10 9 12 14 13 14 13 13 12 12 12 12 13 14 13 12 13 13 12 11 12 14 14 16 16 16 20 20 18 17 15 14 12 12 15 12 10 11 11 11 11 11 12 11